Index of /20260429/WXO-DD/model_gdps/15km/12/099
Name Last modified Size Description
Parent Directory -
20260429T12Z_MSC_GDPS_AbsoluteVorticity_IsbL-0200_LatLon0.15_PT099H.grib2 2026-04-29 16:30 1.5M
20260429T12Z_MSC_GDPS_AbsoluteVorticity_IsbL-0250_LatLon0.15_PT099H.grib2 2026-04-29 16:30 1.3M
20260429T12Z_MSC_GDPS_AbsoluteVorticity_IsbL-0500_LatLon0.15_PT099H.grib2 2026-04-29 16:30 1.5M
20260429T12Z_MSC_GDPS_AbsoluteVorticity_IsbL-0700_LatLon0.15_PT099H.grib2 2026-04-29 16:30 1.3M
20260429T12Z_MSC_GDPS_AbsoluteVorticity_IsbL-0850_LatLon0.15_PT099H.grib2 2026-04-29 16:30 1.6M
20260429T12Z_MSC_GDPS_AirTemp_AGL-120m_LatLon0.15_PT099H.grib2 2026-04-29 16:30 907K
20260429T12Z_MSC_GDPS_AirTemp_AGL-2m_LatLon0.15_PT099H.grib2 2026-04-29 16:30 1.0M
20260429T12Z_MSC_GDPS_AirTemp_AGL-40m_LatLon0.15_PT099H.grib2 2026-04-29 16:30 810K
20260429T12Z_MSC_GDPS_AirTemp_AGL-80m_LatLon0.15_PT099H.grib2 2026-04-29 16:30 799K
20260429T12Z_MSC_GDPS_AirTemp_IsbL-0001_LatLon0.15_PT099H.grib2 2026-04-29 16:30 654K
20260429T12Z_MSC_GDPS_AirTemp_IsbL-0005_LatLon0.15_PT099H.grib2 2026-04-29 16:30 687K
20260429T12Z_MSC_GDPS_AirTemp_IsbL-0010_LatLon0.15_PT099H.grib2 2026-04-29 16:30 694K
20260429T12Z_MSC_GDPS_AirTemp_IsbL-0020_LatLon0.15_PT099H.grib2 2026-04-29 16:30 789K
20260429T12Z_MSC_GDPS_AirTemp_IsbL-0030_LatLon0.15_PT099H.grib2 2026-04-29 16:30 841K
20260429T12Z_MSC_GDPS_AirTemp_IsbL-0050_LatLon0.15_PT099H.grib2 2026-04-29 16:30 817K
20260429T12Z_MSC_GDPS_AirTemp_IsbL-0100_LatLon0.15_PT099H.grib2 2026-04-29 16:30 1.0M
20260429T12Z_MSC_GDPS_AirTemp_IsbL-0150_LatLon0.15_PT099H.grib2 2026-04-29 16:30 1.0M
20260429T12Z_MSC_GDPS_AirTemp_IsbL-0175_LatLon0.15_PT099H.grib2 2026-04-29 16:30 971K
20260429T12Z_MSC_GDPS_AirTemp_IsbL-0200_LatLon0.15_PT099H.grib2 2026-04-29 16:30 1.0M
20260429T12Z_MSC_GDPS_AirTemp_IsbL-0225_LatLon0.15_PT099H.grib2 2026-04-29 16:30 1.0M
20260429T12Z_MSC_GDPS_AirTemp_IsbL-0250_LatLon0.15_PT099H.grib2 2026-04-29 16:30 1.0M
20260429T12Z_MSC_GDPS_AirTemp_IsbL-0275_LatLon0.15_PT099H.grib2 2026-04-29 16:30 1.0M
20260429T12Z_MSC_GDPS_AirTemp_IsbL-0300_LatLon0.15_PT099H.grib2 2026-04-29 16:30 1.0M
20260429T12Z_MSC_GDPS_AirTemp_IsbL-0350_LatLon0.15_PT099H.grib2 2026-04-29 16:30 934K
20260429T12Z_MSC_GDPS_AirTemp_IsbL-0400_LatLon0.15_PT099H.grib2 2026-04-29 16:30 949K
20260429T12Z_MSC_GDPS_AirTemp_IsbL-0450_LatLon0.15_PT099H.grib2 2026-04-29 16:30 973K
20260429T12Z_MSC_GDPS_AirTemp_IsbL-0500_LatLon0.15_PT099H.grib2 2026-04-29 16:30 1.0M
20260429T12Z_MSC_GDPS_AirTemp_IsbL-0550_LatLon0.15_PT099H.grib2 2026-04-29 16:30 1.0M
20260429T12Z_MSC_GDPS_AirTemp_IsbL-0600_LatLon0.15_PT099H.grib2 2026-04-29 16:30 899K
20260429T12Z_MSC_GDPS_AirTemp_IsbL-0650_LatLon0.15_PT099H.grib2 2026-04-29 16:30 925K
20260429T12Z_MSC_GDPS_AirTemp_IsbL-0700_LatLon0.15_PT099H.grib2 2026-04-29 16:30 961K
20260429T12Z_MSC_GDPS_AirTemp_IsbL-0750_LatLon0.15_PT099H.grib2 2026-04-29 16:30 1.0M
20260429T12Z_MSC_GDPS_AirTemp_IsbL-0800_LatLon0.15_PT099H.grib2 2026-04-29 16:30 1.1M
20260429T12Z_MSC_GDPS_AirTemp_IsbL-0850_LatLon0.15_PT099H.grib2 2026-04-29 16:30 1.1M
20260429T12Z_MSC_GDPS_AirTemp_IsbL-0875_LatLon0.15_PT099H.grib2 2026-04-29 16:30 1.2M
20260429T12Z_MSC_GDPS_AirTemp_IsbL-0900_LatLon0.15_PT099H.grib2 2026-04-29 16:30 1.1M
20260429T12Z_MSC_GDPS_AirTemp_IsbL-0925_LatLon0.15_PT099H.grib2 2026-04-29 16:30 1.1M
20260429T12Z_MSC_GDPS_AirTemp_IsbL-0950_LatLon0.15_PT099H.grib2 2026-04-29 16:30 1.1M
20260429T12Z_MSC_GDPS_AirTemp_IsbL-0970_LatLon0.15_PT099H.grib2 2026-04-29 16:30 1.1M
20260429T12Z_MSC_GDPS_AirTemp_IsbL-0985_LatLon0.15_PT099H.grib2 2026-04-29 16:30 1.1M
20260429T12Z_MSC_GDPS_AirTemp_IsbL-1000_LatLon0.15_PT099H.grib2 2026-04-29 16:30 1.1M
20260429T12Z_MSC_GDPS_AirTemp_IsbL-1015_LatLon0.15_PT099H.grib2 2026-04-29 16:30 1.1M
20260429T12Z_MSC_GDPS_Albedo_Sfc_LatLon0.15_PT099H.grib2 2026-04-29 16:30 243K
20260429T12Z_MSC_GDPS_CAPE_Sfc_LatLon0.15_PT099H.grib2 2026-04-29 16:30 4.0M
20260429T12Z_MSC_GDPS_CIN_Sfc_LatLon0.15_PT099H.grib2 2026-04-29 16:30 2.9M
20260429T12Z_MSC_GDPS_CloudWater_EAtm_LatLon0.15_PT099H.grib2 2026-04-29 16:30 537K
20260429T12Z_MSC_GDPS_ConvectivePrecip-Accum_Sfc_LatLon0.15_PT099H.grib2 2026-04-29 16:30 3.4M
20260429T12Z_MSC_GDPS_DewPointDepression_AGL-2m_LatLon0.15_PT099H.grib2 2026-04-29 16:30 766K
20260429T12Z_MSC_GDPS_DewPointDepression_IsbL-0010_LatLon0.15_PT099H.grib2 2026-04-29 16:30 66K
20260429T12Z_MSC_GDPS_DewPointDepression_IsbL-0020_LatLon0.15_PT099H.grib2 2026-04-29 16:30 69K
20260429T12Z_MSC_GDPS_DewPointDepression_IsbL-0030_LatLon0.15_PT099H.grib2 2026-04-29 16:30 86K
20260429T12Z_MSC_GDPS_DewPointDepression_IsbL-0050_LatLon0.15_PT099H.grib2 2026-04-29 16:30 381K
20260429T12Z_MSC_GDPS_DewPointDepression_IsbL-0100_LatLon0.15_PT099H.grib2 2026-04-29 16:30 409K
20260429T12Z_MSC_GDPS_DewPointDepression_IsbL-0150_LatLon0.15_PT099H.grib2 2026-04-29 16:30 471K
20260429T12Z_MSC_GDPS_DewPointDepression_IsbL-0175_LatLon0.15_PT099H.grib2 2026-04-29 16:30 587K
20260429T12Z_MSC_GDPS_DewPointDepression_IsbL-0200_LatLon0.15_PT099H.grib2 2026-04-29 16:30 692K
20260429T12Z_MSC_GDPS_DewPointDepression_IsbL-0225_LatLon0.15_PT099H.grib2 2026-04-29 16:30 784K
20260429T12Z_MSC_GDPS_DewPointDepression_IsbL-0250_LatLon0.15_PT099H.grib2 2026-04-29 16:30 868K
20260429T12Z_MSC_GDPS_DewPointDepression_IsbL-0275_LatLon0.15_PT099H.grib2 2026-04-29 16:30 885K
20260429T12Z_MSC_GDPS_DewPointDepression_IsbL-0300_LatLon0.15_PT099H.grib2 2026-04-29 16:30 923K
20260429T12Z_MSC_GDPS_DewPointDepression_IsbL-0350_LatLon0.15_PT099H.grib2 2026-04-29 16:30 957K
20260429T12Z_MSC_GDPS_DewPointDepression_IsbL-0400_LatLon0.15_PT099H.grib2 2026-04-29 16:30 1.0M
20260429T12Z_MSC_GDPS_DewPointDepression_IsbL-0450_LatLon0.15_PT099H.grib2 2026-04-29 16:30 1.0M
20260429T12Z_MSC_GDPS_DewPointDepression_IsbL-0500_LatLon0.15_PT099H.grib2 2026-04-29 16:30 1.0M
20260429T12Z_MSC_GDPS_DewPointDepression_IsbL-0550_LatLon0.15_PT099H.grib2 2026-04-29 16:30 1.0M
20260429T12Z_MSC_GDPS_DewPointDepression_IsbL-0600_LatLon0.15_PT099H.grib2 2026-04-29 16:30 1.1M
20260429T12Z_MSC_GDPS_DewPointDepression_IsbL-0650_LatLon0.15_PT099H.grib2 2026-04-29 16:30 1.1M
20260429T12Z_MSC_GDPS_DewPointDepression_IsbL-0700_LatLon0.15_PT099H.grib2 2026-04-29 16:30 1.1M
20260429T12Z_MSC_GDPS_DewPointDepression_IsbL-0750_LatLon0.15_PT099H.grib2 2026-04-29 16:30 1.1M
20260429T12Z_MSC_GDPS_DewPointDepression_IsbL-0800_LatLon0.15_PT099H.grib2 2026-04-29 16:30 1.2M
20260429T12Z_MSC_GDPS_DewPointDepression_IsbL-0850_LatLon0.15_PT099H.grib2 2026-04-29 16:30 1.2M
20260429T12Z_MSC_GDPS_DewPointDepression_IsbL-0875_LatLon0.15_PT099H.grib2 2026-04-29 16:30 1.1M
20260429T12Z_MSC_GDPS_DewPointDepression_IsbL-0900_LatLon0.15_PT099H.grib2 2026-04-29 16:30 1.1M
20260429T12Z_MSC_GDPS_DewPointDepression_IsbL-0925_LatLon0.15_PT099H.grib2 2026-04-29 16:30 1.0M
20260429T12Z_MSC_GDPS_DewPointDepression_IsbL-0950_LatLon0.15_PT099H.grib2 2026-04-29 16:30 1.0M
20260429T12Z_MSC_GDPS_DewPointDepression_IsbL-0970_LatLon0.15_PT099H.grib2 2026-04-29 16:30 1.0M
20260429T12Z_MSC_GDPS_DewPointDepression_IsbL-0985_LatLon0.15_PT099H.grib2 2026-04-29 16:30 1.0M
20260429T12Z_MSC_GDPS_DewPointDepression_IsbL-1000_LatLon0.15_PT099H.grib2 2026-04-29 16:30 1.0M
20260429T12Z_MSC_GDPS_DewPointDepression_IsbL-1015_LatLon0.15_PT099H.grib2 2026-04-29 16:30 920K
20260429T12Z_MSC_GDPS_DewPoint_AGL-2m_LatLon0.15_PT099H.grib2 2026-04-29 16:30 613K
20260429T12Z_MSC_GDPS_DownwardLongwaveRadiationFlux-Accum_Sfc_LatLon0.15_PT099H.grib2 2026-04-29 16:30 765K
20260429T12Z_MSC_GDPS_DownwardShortwaveRadiationFlux-Accum_NTAtm_LatLon0.15_PT099H.grib2 2026-04-29 16:30 254K
20260429T12Z_MSC_GDPS_DownwardShortwaveRadiationFlux-Accum_Sfc_LatLon0.15_PT099H.grib2 2026-04-29 16:30 949K
20260429T12Z_MSC_GDPS_FreezingRain-Accum1h_Sfc_LatLon0.15_PT099H.grib2 2026-04-29 16:30 40K
20260429T12Z_MSC_GDPS_FreezingRain-Accum3h_Sfc_LatLon0.15_PT099H.grib2 2026-04-29 16:30 59K
20260429T12Z_MSC_GDPS_FreezingRain-Accum_Sfc_LatLon0.15_PT099H.grib2 2026-04-29 16:30 372K
20260429T12Z_MSC_GDPS_GeopotentialHeight_IsbL-0001_LatLon0.15_PT099H.grib2 2026-04-29 16:30 370K
20260429T12Z_MSC_GDPS_GeopotentialHeight_IsbL-0005_LatLon0.15_PT099H.grib2 2026-04-29 16:30 489K
20260429T12Z_MSC_GDPS_GeopotentialHeight_IsbL-0010_LatLon0.15_PT099H.grib2 2026-04-29 16:30 482K
20260429T12Z_MSC_GDPS_GeopotentialHeight_IsbL-0020_LatLon0.15_PT099H.grib2 2026-04-29 16:30 412K
20260429T12Z_MSC_GDPS_GeopotentialHeight_IsbL-0030_LatLon0.15_PT099H.grib2 2026-04-29 16:30 569K
20260429T12Z_MSC_GDPS_GeopotentialHeight_IsbL-0050_LatLon0.15_PT099H.grib2 2026-04-29 16:30 571K
20260429T12Z_MSC_GDPS_GeopotentialHeight_IsbL-0100_LatLon0.15_PT099H.grib2 2026-04-29 16:30 611K
20260429T12Z_MSC_GDPS_GeopotentialHeight_IsbL-0150_LatLon0.15_PT099H.grib2 2026-04-29 16:30 627K
20260429T12Z_MSC_GDPS_GeopotentialHeight_IsbL-0175_LatLon0.15_PT099H.grib2 2026-04-29 16:30 630K
20260429T12Z_MSC_GDPS_GeopotentialHeight_IsbL-0200_LatLon0.15_PT099H.grib2 2026-04-29 16:30 634K
20260429T12Z_MSC_GDPS_GeopotentialHeight_IsbL-0225_LatLon0.15_PT099H.grib2 2026-04-29 16:30 639K
20260429T12Z_MSC_GDPS_GeopotentialHeight_IsbL-0250_LatLon0.15_PT099H.grib2 2026-04-29 16:30 644K
20260429T12Z_MSC_GDPS_GeopotentialHeight_IsbL-0275_LatLon0.15_PT099H.grib2 2026-04-29 16:30 642K
20260429T12Z_MSC_GDPS_GeopotentialHeight_IsbL-0300_LatLon0.15_PT099H.grib2 2026-04-29 16:30 635K
20260429T12Z_MSC_GDPS_GeopotentialHeight_IsbL-0350_LatLon0.15_PT099H.grib2 2026-04-29 16:30 631K
20260429T12Z_MSC_GDPS_GeopotentialHeight_IsbL-0400_LatLon0.15_PT099H.grib2 2026-04-29 16:30 620K
20260429T12Z_MSC_GDPS_GeopotentialHeight_IsbL-0450_LatLon0.15_PT099H.grib2 2026-04-29 16:30 612K
20260429T12Z_MSC_GDPS_GeopotentialHeight_IsbL-0500_LatLon0.15_PT099H.grib2 2026-04-29 16:30 603K
20260429T12Z_MSC_GDPS_GeopotentialHeight_IsbL-0550_LatLon0.15_PT099H.grib2 2026-04-29 16:30 528K
20260429T12Z_MSC_GDPS_GeopotentialHeight_IsbL-0600_LatLon0.15_PT099H.grib2 2026-04-29 16:30 525K
20260429T12Z_MSC_GDPS_GeopotentialHeight_IsbL-0650_LatLon0.15_PT099H.grib2 2026-04-29 16:30 692K
20260429T12Z_MSC_GDPS_GeopotentialHeight_IsbL-0700_LatLon0.15_PT099H.grib2 2026-04-29 16:30 687K
20260429T12Z_MSC_GDPS_GeopotentialHeight_IsbL-0750_LatLon0.15_PT099H.grib2 2026-04-29 16:30 691K
20260429T12Z_MSC_GDPS_GeopotentialHeight_IsbL-0800_LatLon0.15_PT099H.grib2 2026-04-29 16:30 705K
20260429T12Z_MSC_GDPS_GeopotentialHeight_IsbL-0850_LatLon0.15_PT099H.grib2 2026-04-29 16:30 711K
20260429T12Z_MSC_GDPS_GeopotentialHeight_IsbL-0875_LatLon0.15_PT099H.grib2 2026-04-29 16:30 721K
20260429T12Z_MSC_GDPS_GeopotentialHeight_IsbL-0900_LatLon0.15_PT099H.grib2 2026-04-29 16:30 727K
20260429T12Z_MSC_GDPS_GeopotentialHeight_IsbL-0925_LatLon0.15_PT099H.grib2 2026-04-29 16:30 733K
20260429T12Z_MSC_GDPS_GeopotentialHeight_IsbL-0950_LatLon0.15_PT099H.grib2 2026-04-29 16:30 741K
20260429T12Z_MSC_GDPS_GeopotentialHeight_IsbL-0970_LatLon0.15_PT099H.grib2 2026-04-29 16:30 753K
20260429T12Z_MSC_GDPS_GeopotentialHeight_IsbL-0985_LatLon0.15_PT099H.grib2 2026-04-29 16:30 768K
20260429T12Z_MSC_GDPS_GeopotentialHeight_IsbL-1000_LatLon0.15_PT099H.grib2 2026-04-29 16:30 789K
20260429T12Z_MSC_GDPS_GeopotentialHeight_IsbL-1015_LatLon0.15_PT099H.grib2 2026-04-29 16:30 811K
20260429T12Z_MSC_GDPS_Humidex_Sfc_LatLon0.15_PT099H.grib2 2026-04-29 16:30 5.3M
20260429T12Z_MSC_GDPS_IcePellets-Accum1h_Sfc_LatLon0.15_PT099H.grib2 2026-04-29 16:30 3.9K
20260429T12Z_MSC_GDPS_IcePellets-Accum3h_Sfc_LatLon0.15_PT099H.grib2 2026-04-29 16:30 5.7K
20260429T12Z_MSC_GDPS_IcePellets-Accum_Sfc_LatLon0.15_PT099H.grib2 2026-04-29 16:30 62K
20260429T12Z_MSC_GDPS_KIndex_Sfc_LatLon0.15_PT099H.grib2 2026-04-29 16:30 6.5M
20260429T12Z_MSC_GDPS_LatentHeatNetFlux_Sfc_LatLon0.15_PT099H.grib2 2026-04-29 16:30 545K
20260429T12Z_MSC_GDPS_LiftedIndex-MU-VT_IsbL-0500_LatLon0.15_PT099H.grib2 2026-04-29 16:30 5.4M
20260429T12Z_MSC_GDPS_NetLongwaveRadiationFlux-Accum_Sfc_LatLon0.15_PT099H.grib2 2026-04-29 16:30 970K
20260429T12Z_MSC_GDPS_NetShortwaveRadiationFlux-Accum_Sfc_LatLon0.15_PT099H.grib2 2026-04-29 16:30 936K
20260429T12Z_MSC_GDPS_O3MixingRatio_Sfc_LatLon0.15_PT099H.grib2 2026-04-29 16:51 1.9M
20260429T12Z_MSC_GDPS_O3_EAtm_LatLon0.15_PT099H.grib2 2026-04-29 16:51 2.4M
20260429T12Z_MSC_GDPS_PlanetaryBoundaryLayerHeight_Sfc_LatLon0.15_PT099H.grib2 2026-04-29 16:30 2.5M
20260429T12Z_MSC_GDPS_Precip-Accum1h_Sfc_LatLon0.15_PT099H.grib2 2026-04-29 16:30 3.2M
20260429T12Z_MSC_GDPS_Precip-Accum3h_Sfc_LatLon0.15_PT099H.grib2 2026-04-29 16:30 3.5M
20260429T12Z_MSC_GDPS_Precip-Accum_Sfc_LatLon0.15_PT099H.grib2 2026-04-29 16:30 5.0M
20260429T12Z_MSC_GDPS_PrecipRate_Sfc_LatLon0.15_PT099H.grib2 2026-04-29 16:30 3.0M
20260429T12Z_MSC_GDPS_PrecipType-Instant_Sfc_LatLon0.15_PT099H.grib2 2026-04-29 16:30 1.6M
20260429T12Z_MSC_GDPS_Pressure_MSL_LatLon0.15_PT099H.grib2 2026-04-29 16:30 824K
20260429T12Z_MSC_GDPS_Pressure_PVU-1.5_LatLon0.15_PT099H.grib2 2026-04-29 16:30 5.8M
20260429T12Z_MSC_GDPS_Pressure_PVU-1_LatLon0.15_PT099H.grib2 2026-04-29 16:30 6.0M
20260429T12Z_MSC_GDPS_Pressure_PVU-2_LatLon0.15_PT099H.grib2 2026-04-29 16:30 5.6M
20260429T12Z_MSC_GDPS_Pressure_Sfc_LatLon0.15_PT099H.grib2 2026-04-29 16:30 1.1M
20260429T12Z_MSC_GDPS_RadiativeTemp_Sfc_LatLon0.15_PT099H.grib2 2026-04-29 16:30 494K
20260429T12Z_MSC_GDPS_Rain-Accum1h_Sfc_LatLon0.15_PT099H.grib2 2026-04-29 16:30 1.7M
20260429T12Z_MSC_GDPS_Rain-Accum3h_Sfc_LatLon0.15_PT099H.grib2 2026-04-29 16:30 1.7M
20260429T12Z_MSC_GDPS_Rain-Accum_Sfc_LatLon0.15_PT099H.grib2 2026-04-29 16:30 3.9M
20260429T12Z_MSC_GDPS_RelativeHumidity_AGL-2m_LatLon0.15_PT099H.grib2 2026-04-29 16:30 1.1M
20260429T12Z_MSC_GDPS_RelativeHumidity_IsbL-0010_LatLon0.15_PT099H.grib2 2026-04-29 16:30 130K
20260429T12Z_MSC_GDPS_RelativeHumidity_IsbL-0020_LatLon0.15_PT099H.grib2 2026-04-29 16:30 164K
20260429T12Z_MSC_GDPS_RelativeHumidity_IsbL-0030_LatLon0.15_PT099H.grib2 2026-04-29 16:30 268K
20260429T12Z_MSC_GDPS_RelativeHumidity_IsbL-0050_LatLon0.15_PT099H.grib2 2026-04-29 16:30 425K
20260429T12Z_MSC_GDPS_RelativeHumidity_IsbL-0100_LatLon0.15_PT099H.grib2 2026-04-29 16:30 509K
20260429T12Z_MSC_GDPS_RelativeHumidity_IsbL-0150_LatLon0.15_PT099H.grib2 2026-04-29 16:30 665K
20260429T12Z_MSC_GDPS_RelativeHumidity_IsbL-0175_LatLon0.15_PT099H.grib2 2026-04-29 16:30 791K
20260429T12Z_MSC_GDPS_RelativeHumidity_IsbL-0200_LatLon0.15_PT099H.grib2 2026-04-29 16:30 714K
20260429T12Z_MSC_GDPS_RelativeHumidity_IsbL-0225_LatLon0.15_PT099H.grib2 2026-04-29 16:30 799K
20260429T12Z_MSC_GDPS_RelativeHumidity_IsbL-0250_LatLon0.15_PT099H.grib2 2026-04-29 16:30 872K
20260429T12Z_MSC_GDPS_RelativeHumidity_IsbL-0275_LatLon0.15_PT099H.grib2 2026-04-29 16:30 893K
20260429T12Z_MSC_GDPS_RelativeHumidity_IsbL-0300_LatLon0.15_PT099H.grib2 2026-04-29 16:30 935K
20260429T12Z_MSC_GDPS_RelativeHumidity_IsbL-0350_LatLon0.15_PT099H.grib2 2026-04-29 16:30 956K
20260429T12Z_MSC_GDPS_RelativeHumidity_IsbL-0400_LatLon0.15_PT099H.grib2 2026-04-29 16:30 1.0M
20260429T12Z_MSC_GDPS_RelativeHumidity_IsbL-0450_LatLon0.15_PT099H.grib2 2026-04-29 16:30 1.0M
20260429T12Z_MSC_GDPS_RelativeHumidity_IsbL-0500_LatLon0.15_PT099H.grib2 2026-04-29 16:30 1.0M
20260429T12Z_MSC_GDPS_RelativeHumidity_IsbL-0550_LatLon0.15_PT099H.grib2 2026-04-29 16:30 1.0M
20260429T12Z_MSC_GDPS_RelativeHumidity_IsbL-0600_LatLon0.15_PT099H.grib2 2026-04-29 16:30 1.0M
20260429T12Z_MSC_GDPS_RelativeHumidity_IsbL-0650_LatLon0.15_PT099H.grib2 2026-04-29 16:30 1.1M
20260429T12Z_MSC_GDPS_RelativeHumidity_IsbL-0700_LatLon0.15_PT099H.grib2 2026-04-29 16:30 1.1M
20260429T12Z_MSC_GDPS_RelativeHumidity_IsbL-0750_LatLon0.15_PT099H.grib2 2026-04-29 16:30 1.2M
20260429T12Z_MSC_GDPS_RelativeHumidity_IsbL-0800_LatLon0.15_PT099H.grib2 2026-04-29 16:30 1.3M
20260429T12Z_MSC_GDPS_RelativeHumidity_IsbL-0850_LatLon0.15_PT099H.grib2 2026-04-29 16:30 1.3M
20260429T12Z_MSC_GDPS_RelativeHumidity_IsbL-0875_LatLon0.15_PT099H.grib2 2026-04-29 16:30 1.3M
20260429T12Z_MSC_GDPS_RelativeHumidity_IsbL-0900_LatLon0.15_PT099H.grib2 2026-04-29 16:30 1.2M
20260429T12Z_MSC_GDPS_RelativeHumidity_IsbL-0925_LatLon0.15_PT099H.grib2 2026-04-29 16:30 1.2M
20260429T12Z_MSC_GDPS_RelativeHumidity_IsbL-0950_LatLon0.15_PT099H.grib2 2026-04-29 16:30 1.2M
20260429T12Z_MSC_GDPS_RelativeHumidity_IsbL-0970_LatLon0.15_PT099H.grib2 2026-04-29 16:30 1.2M
20260429T12Z_MSC_GDPS_RelativeHumidity_IsbL-0985_LatLon0.15_PT099H.grib2 2026-04-29 16:30 1.1M
20260429T12Z_MSC_GDPS_RelativeHumidity_IsbL-1000_LatLon0.15_PT099H.grib2 2026-04-29 16:30 1.1M
20260429T12Z_MSC_GDPS_RelativeHumidity_IsbL-1015_LatLon0.15_PT099H.grib2 2026-04-29 16:30 1.0M
20260429T12Z_MSC_GDPS_RelativeVorticity_IsbL-0200_LatLon0.15_PT099H.grib2 2026-04-29 16:30 1.5M
20260429T12Z_MSC_GDPS_RelativeVorticity_IsbL-0250_LatLon0.15_PT099H.grib2 2026-04-29 16:30 1.6M
20260429T12Z_MSC_GDPS_RelativeVorticity_IsbL-0500_LatLon0.15_PT099H.grib2 2026-04-29 16:30 1.5M
20260429T12Z_MSC_GDPS_RelativeVorticity_IsbL-0700_LatLon0.15_PT099H.grib2 2026-04-29 16:30 1.6M
20260429T12Z_MSC_GDPS_RelativeVorticity_IsbL-0850_LatLon0.15_PT099H.grib2 2026-04-29 16:30 1.6M
20260429T12Z_MSC_GDPS_Runoff-Accum_Sfc_LatLon0.15_PT099H.grib2 2026-04-29 16:30 130K
20260429T12Z_MSC_GDPS_SensibleHeatNetFlux_Sfc_LatLon0.15_PT099H.grib2 2026-04-29 16:30 648K
20260429T12Z_MSC_GDPS_ShowalterIndex_IsbL-0500_LatLon0.15_PT099H.grib2 2026-04-29 16:30 6.2M
20260429T12Z_MSC_GDPS_Snow-Accum1h_Sfc_LatLon0.15_PT099H.grib2 2026-04-29 16:30 1.1M
20260429T12Z_MSC_GDPS_Snow-Accum3h_Sfc_LatLon0.15_PT099H.grib2 2026-04-29 16:30 1.1M
20260429T12Z_MSC_GDPS_Snow-Accum_Sfc_LatLon0.15_PT099H.grib2 2026-04-29 16:30 2.0M
20260429T12Z_MSC_GDPS_SnowDensity_Sfc_LatLon0.15_PT099H.grib2 2026-04-29 16:30 267K
20260429T12Z_MSC_GDPS_SnowDepth_Sfc_LatLon0.15_PT099H.grib2 2026-04-29 16:30 1.7M
20260429T12Z_MSC_GDPS_SoilTemp_DBS-0to10cm_LatLon0.15_PT099H.grib2 2026-04-29 16:30 512K
20260429T12Z_MSC_GDPS_SoilTemp_Sfc_LatLon0.15_PT099H.grib2 2026-04-29 16:30 575K
20260429T12Z_MSC_GDPS_SoilVolumetricIceContent_Sfc_LatLon0.15_PT099H.grib2 2026-04-29 16:30 198K
20260429T12Z_MSC_GDPS_SoilVolumetricWaterContent_DBS-0to10cm_LatLon0.15_PT099H.grib2 2026-04-29 16:30 588K
20260429T12Z_MSC_GDPS_SoilVolumetricWaterContent_DBS-0to1cm_LatLon0.15_PT099H.grib2 2026-04-29 16:30 649K
20260429T12Z_MSC_GDPS_SpecificHumidity_AGL-120m_LatLon0.15_PT099H.grib2 2026-04-29 16:30 1.1M
20260429T12Z_MSC_GDPS_SpecificHumidity_AGL-2m_LatLon0.15_PT099H.grib2 2026-04-29 16:30 1.2M
20260429T12Z_MSC_GDPS_SpecificHumidity_AGL-40m_LatLon0.15_PT099H.grib2 2026-04-29 16:30 1.1M
20260429T12Z_MSC_GDPS_SpecificHumidity_AGL-80m_LatLon0.15_PT099H.grib2 2026-04-29 16:30 1.1M
20260429T12Z_MSC_GDPS_SpecificHumidity_IsbL-0001_LatLon0.15_PT099H.grib2 2026-04-29 16:30 1.2M
20260429T12Z_MSC_GDPS_SpecificHumidity_IsbL-0005_LatLon0.15_PT099H.grib2 2026-04-29 16:30 1.2M
20260429T12Z_MSC_GDPS_SpecificHumidity_IsbL-0010_LatLon0.15_PT099H.grib2 2026-04-29 16:30 1.3M
20260429T12Z_MSC_GDPS_SpecificHumidity_IsbL-0020_LatLon0.15_PT099H.grib2 2026-04-29 16:30 1.3M
20260429T12Z_MSC_GDPS_SpecificHumidity_IsbL-0030_LatLon0.15_PT099H.grib2 2026-04-29 16:30 1.3M
20260429T12Z_MSC_GDPS_SpecificHumidity_IsbL-0050_LatLon0.15_PT099H.grib2 2026-04-29 16:30 1.6M
20260429T12Z_MSC_GDPS_SpecificHumidity_IsbL-0100_LatLon0.15_PT099H.grib2 2026-04-29 16:30 1.3M
20260429T12Z_MSC_GDPS_SpecificHumidity_IsbL-0150_LatLon0.15_PT099H.grib2 2026-04-29 16:30 1.3M
20260429T12Z_MSC_GDPS_SpecificHumidity_IsbL-0175_LatLon0.15_PT099H.grib2 2026-04-29 16:30 1.3M
20260429T12Z_MSC_GDPS_SpecificHumidity_IsbL-0200_LatLon0.15_PT099H.grib2 2026-04-29 16:30 1.3M
20260429T12Z_MSC_GDPS_SpecificHumidity_IsbL-0225_LatLon0.15_PT099H.grib2 2026-04-29 16:30 1.3M
20260429T12Z_MSC_GDPS_SpecificHumidity_IsbL-0250_LatLon0.15_PT099H.grib2 2026-04-29 16:30 1.4M
20260429T12Z_MSC_GDPS_SpecificHumidity_IsbL-0275_LatLon0.15_PT099H.grib2 2026-04-29 16:30 1.3M
20260429T12Z_MSC_GDPS_SpecificHumidity_IsbL-0300_LatLon0.15_PT099H.grib2 2026-04-29 16:30 1.2M
20260429T12Z_MSC_GDPS_SpecificHumidity_IsbL-0350_LatLon0.15_PT099H.grib2 2026-04-29 16:30 1.5M
20260429T12Z_MSC_GDPS_SpecificHumidity_IsbL-0400_LatLon0.15_PT099H.grib2 2026-04-29 16:30 1.5M
20260429T12Z_MSC_GDPS_SpecificHumidity_IsbL-0450_LatLon0.15_PT099H.grib2 2026-04-29 16:30 1.6M
20260429T12Z_MSC_GDPS_SpecificHumidity_IsbL-0500_LatLon0.15_PT099H.grib2 2026-04-29 16:30 1.4M
20260429T12Z_MSC_GDPS_SpecificHumidity_IsbL-0550_LatLon0.15_PT099H.grib2 2026-04-29 16:30 1.6M
20260429T12Z_MSC_GDPS_SpecificHumidity_IsbL-0600_LatLon0.15_PT099H.grib2 2026-04-29 16:30 1.7M
20260429T12Z_MSC_GDPS_SpecificHumidity_IsbL-0650_LatLon0.15_PT099H.grib2 2026-04-29 16:30 1.5M
20260429T12Z_MSC_GDPS_SpecificHumidity_IsbL-0700_LatLon0.15_PT099H.grib2 2026-04-29 16:30 1.6M
20260429T12Z_MSC_GDPS_SpecificHumidity_IsbL-0750_LatLon0.15_PT099H.grib2 2026-04-29 16:30 1.7M
20260429T12Z_MSC_GDPS_SpecificHumidity_IsbL-0800_LatLon0.15_PT099H.grib2 2026-04-29 16:30 1.9M
20260429T12Z_MSC_GDPS_SpecificHumidity_IsbL-0850_LatLon0.15_PT099H.grib2 2026-04-29 16:30 1.9M
20260429T12Z_MSC_GDPS_SpecificHumidity_IsbL-0875_LatLon0.15_PT099H.grib2 2026-04-29 16:30 1.9M
20260429T12Z_MSC_GDPS_SpecificHumidity_IsbL-0900_LatLon0.15_PT099H.grib2 2026-04-29 16:30 1.9M
20260429T12Z_MSC_GDPS_SpecificHumidity_IsbL-0925_LatLon0.15_PT099H.grib2 2026-04-29 16:30 1.6M
20260429T12Z_MSC_GDPS_SpecificHumidity_IsbL-0950_LatLon0.15_PT099H.grib2 2026-04-29 16:30 1.6M
20260429T12Z_MSC_GDPS_SpecificHumidity_IsbL-0970_LatLon0.15_PT099H.grib2 2026-04-29 16:30 1.5M
20260429T12Z_MSC_GDPS_SpecificHumidity_IsbL-0985_LatLon0.15_PT099H.grib2 2026-04-29 16:30 1.5M
20260429T12Z_MSC_GDPS_SpecificHumidity_IsbL-1000_LatLon0.15_PT099H.grib2 2026-04-29 16:30 1.5M
20260429T12Z_MSC_GDPS_SpecificHumidity_IsbL-1015_LatLon0.15_PT099H.grib2 2026-04-29 16:30 1.5M
20260429T12Z_MSC_GDPS_SpecificHumidity_Sfc_LatLon0.15_PT099H.grib2 2026-04-29 16:30 676K
20260429T12Z_MSC_GDPS_Thickness_IsbL-0850to0700_LatLon0.15_PT099H.grib2 2026-04-29 16:30 471K
20260429T12Z_MSC_GDPS_Thickness_IsbL-1000to0500_LatLon0.15_PT099H.grib2 2026-04-29 16:30 372K
20260429T12Z_MSC_GDPS_Thickness_IsbL-1000to0850_LatLon0.15_PT099H.grib2 2026-04-29 16:30 492K
20260429T12Z_MSC_GDPS_TotalCloudCover_Sfc_LatLon0.15_PT099H.grib2 2026-04-29 16:30 821K
20260429T12Z_MSC_GDPS_TotalTotalsIndex_Sfc_LatLon0.15_PT099H.grib2 2026-04-29 16:30 6.2M
20260429T12Z_MSC_GDPS_UVIndex-ClearSky_Sfc_LatLon0.15_PT099H.grib2 2026-04-29 16:51 1.0M
20260429T12Z_MSC_GDPS_UVIndex_Sfc_LatLon0.15_PT099H.grib2 2026-04-29 16:51 1.5M
20260429T12Z_MSC_GDPS_UpwardLongwaveRadiationFlux_NTAtm_LatLon0.15_PT099H.grib2 2026-04-29 16:30 849K
20260429T12Z_MSC_GDPS_VerticalVelocity_IsbL-0200_LatLon0.15_PT099H.grib2 2026-04-29 16:30 1.2M
20260429T12Z_MSC_GDPS_VerticalVelocity_IsbL-0250_LatLon0.15_PT099H.grib2 2026-04-29 16:30 1.1M
20260429T12Z_MSC_GDPS_VerticalVelocity_IsbL-0500_LatLon0.15_PT099H.grib2 2026-04-29 16:30 1.3M
20260429T12Z_MSC_GDPS_VerticalVelocity_IsbL-0600_LatLon0.15_PT099H.grib2 2026-04-29 16:30 1.4M
20260429T12Z_MSC_GDPS_VerticalVelocity_IsbL-0700_LatLon0.15_PT099H.grib2 2026-04-29 16:30 1.4M
20260429T12Z_MSC_GDPS_VerticalVelocity_IsbL-0850_LatLon0.15_PT099H.grib2 2026-04-29 16:30 1.3M
20260429T12Z_MSC_GDPS_WindChill_Sfc_LatLon0.15_PT099H.grib2 2026-04-29 16:30 5.3M
20260429T12Z_MSC_GDPS_WindDir_AGL-10m_LatLon0.15_PT099H.grib2 2026-04-29 16:30 1.3M
20260429T12Z_MSC_GDPS_WindDir_AGL-120m_LatLon0.15_PT099H.grib2 2026-04-29 16:30 1.3M
20260429T12Z_MSC_GDPS_WindDir_AGL-40m_LatLon0.15_PT099H.grib2 2026-04-29 16:30 1.4M
20260429T12Z_MSC_GDPS_WindDir_AGL-80m_LatLon0.15_PT099H.grib2 2026-04-29 16:30 1.4M
20260429T12Z_MSC_GDPS_WindDir_IsbL-0001_LatLon0.15_PT099H.grib2 2026-04-29 16:30 680K
20260429T12Z_MSC_GDPS_WindDir_IsbL-0005_LatLon0.15_PT099H.grib2 2026-04-29 16:30 818K
20260429T12Z_MSC_GDPS_WindDir_IsbL-0010_LatLon0.15_PT099H.grib2 2026-04-29 16:30 823K
20260429T12Z_MSC_GDPS_WindDir_IsbL-0020_LatLon0.15_PT099H.grib2 2026-04-29 16:30 961K
20260429T12Z_MSC_GDPS_WindDir_IsbL-0030_LatLon0.15_PT099H.grib2 2026-04-29 16:30 950K
20260429T12Z_MSC_GDPS_WindDir_IsbL-0050_LatLon0.15_PT099H.grib2 2026-04-29 16:30 956K
20260429T12Z_MSC_GDPS_WindDir_IsbL-0100_LatLon0.15_PT099H.grib2 2026-04-29 16:30 1.0M
20260429T12Z_MSC_GDPS_WindDir_IsbL-0150_LatLon0.15_PT099H.grib2 2026-04-29 16:30 1.0M
20260429T12Z_MSC_GDPS_WindDir_IsbL-0175_LatLon0.15_PT099H.grib2 2026-04-29 16:30 1.1M
20260429T12Z_MSC_GDPS_WindDir_IsbL-0200_LatLon0.15_PT099H.grib2 2026-04-29 16:30 1.1M
20260429T12Z_MSC_GDPS_WindDir_IsbL-0225_LatLon0.15_PT099H.grib2 2026-04-29 16:30 1.1M
20260429T12Z_MSC_GDPS_WindDir_IsbL-0250_LatLon0.15_PT099H.grib2 2026-04-29 16:30 1.1M
20260429T12Z_MSC_GDPS_WindDir_IsbL-0275_LatLon0.15_PT099H.grib2 2026-04-29 16:30 1.2M
20260429T12Z_MSC_GDPS_WindDir_IsbL-0300_LatLon0.15_PT099H.grib2 2026-04-29 16:30 1.2M
20260429T12Z_MSC_GDPS_WindDir_IsbL-0350_LatLon0.15_PT099H.grib2 2026-04-29 16:30 1.2M
20260429T12Z_MSC_GDPS_WindDir_IsbL-0400_LatLon0.15_PT099H.grib2 2026-04-29 16:30 1.3M
20260429T12Z_MSC_GDPS_WindDir_IsbL-0450_LatLon0.15_PT099H.grib2 2026-04-29 16:30 1.3M
20260429T12Z_MSC_GDPS_WindDir_IsbL-0500_LatLon0.15_PT099H.grib2 2026-04-29 16:30 1.3M
20260429T12Z_MSC_GDPS_WindDir_IsbL-0550_LatLon0.15_PT099H.grib2 2026-04-29 16:30 1.4M
20260429T12Z_MSC_GDPS_WindDir_IsbL-0600_LatLon0.15_PT099H.grib2 2026-04-29 16:30 1.4M
20260429T12Z_MSC_GDPS_WindDir_IsbL-0650_LatLon0.15_PT099H.grib2 2026-04-29 16:30 1.5M
20260429T12Z_MSC_GDPS_WindDir_IsbL-0700_LatLon0.15_PT099H.grib2 2026-04-29 16:30 1.6M
20260429T12Z_MSC_GDPS_WindDir_IsbL-0750_LatLon0.15_PT099H.grib2 2026-04-29 16:30 1.7M
20260429T12Z_MSC_GDPS_WindDir_IsbL-0800_LatLon0.15_PT099H.grib2 2026-04-29 16:30 1.8M
20260429T12Z_MSC_GDPS_WindDir_IsbL-0850_LatLon0.15_PT099H.grib2 2026-04-29 16:30 1.9M
20260429T12Z_MSC_GDPS_WindDir_IsbL-0875_LatLon0.15_PT099H.grib2 2026-04-29 16:30 1.9M
20260429T12Z_MSC_GDPS_WindDir_IsbL-0900_LatLon0.15_PT099H.grib2 2026-04-29 16:30 2.0M
20260429T12Z_MSC_GDPS_WindDir_IsbL-0925_LatLon0.15_PT099H.grib2 2026-04-29 16:30 2.0M
20260429T12Z_MSC_GDPS_WindDir_IsbL-0950_LatLon0.15_PT099H.grib2 2026-04-29 16:30 2.0M
20260429T12Z_MSC_GDPS_WindDir_IsbL-0970_LatLon0.15_PT099H.grib2 2026-04-29 16:30 2.0M
20260429T12Z_MSC_GDPS_WindDir_IsbL-0985_LatLon0.15_PT099H.grib2 2026-04-29 16:30 2.0M
20260429T12Z_MSC_GDPS_WindDir_IsbL-1000_LatLon0.15_PT099H.grib2 2026-04-29 16:30 2.1M
20260429T12Z_MSC_GDPS_WindDir_IsbL-1015_LatLon0.15_PT099H.grib2 2026-04-29 16:30 2.0M
20260429T12Z_MSC_GDPS_WindGust-Max_AGL-10m_LatLon0.15_PT099H.grib2 2026-04-29 16:30 2.2M
20260429T12Z_MSC_GDPS_WindGust-Min_AGL-10m_LatLon0.15_PT099H.grib2 2026-04-29 16:30 2.2M
20260429T12Z_MSC_GDPS_WindGust_AGL-10m_LatLon0.15_PT099H.grib2 2026-04-29 16:30 2.2M
20260429T12Z_MSC_GDPS_WindSpeed_AGL-10m_LatLon0.15_PT099H.grib2 2026-04-29 16:30 1.1M
20260429T12Z_MSC_GDPS_WindSpeed_AGL-120m_LatLon0.15_PT099H.grib2 2026-04-29 16:30 1.2M
20260429T12Z_MSC_GDPS_WindSpeed_AGL-40m_LatLon0.15_PT099H.grib2 2026-04-29 16:30 1.2M
20260429T12Z_MSC_GDPS_WindSpeed_AGL-80m_LatLon0.15_PT099H.grib2 2026-04-29 16:30 1.2M
20260429T12Z_MSC_GDPS_WindSpeed_IsbL-0001_LatLon0.15_PT099H.grib2 2026-04-29 16:30 644K
20260429T12Z_MSC_GDPS_WindSpeed_IsbL-0005_LatLon0.15_PT099H.grib2 2026-04-29 16:30 692K
20260429T12Z_MSC_GDPS_WindSpeed_IsbL-0010_LatLon0.15_PT099H.grib2 2026-04-29 16:30 626K
20260429T12Z_MSC_GDPS_WindSpeed_IsbL-0020_LatLon0.15_PT099H.grib2 2026-04-29 16:30 666K
20260429T12Z_MSC_GDPS_WindSpeed_IsbL-0030_LatLon0.15_PT099H.grib2 2026-04-29 16:30 866K
20260429T12Z_MSC_GDPS_WindSpeed_IsbL-0050_LatLon0.15_PT099H.grib2 2026-04-29 16:30 911K
20260429T12Z_MSC_GDPS_WindSpeed_IsbL-0100_LatLon0.15_PT099H.grib2 2026-04-29 16:30 1.1M
20260429T12Z_MSC_GDPS_WindSpeed_IsbL-0150_LatLon0.15_PT099H.grib2 2026-04-29 16:30 957K
20260429T12Z_MSC_GDPS_WindSpeed_IsbL-0175_LatLon0.15_PT099H.grib2 2026-04-29 16:30 1.0M
20260429T12Z_MSC_GDPS_WindSpeed_IsbL-0200_LatLon0.15_PT099H.grib2 2026-04-29 16:30 1.1M
20260429T12Z_MSC_GDPS_WindSpeed_IsbL-0225_LatLon0.15_PT099H.grib2 2026-04-29 16:30 1.1M
20260429T12Z_MSC_GDPS_WindSpeed_IsbL-0250_LatLon0.15_PT099H.grib2 2026-04-29 16:30 1.1M
20260429T12Z_MSC_GDPS_WindSpeed_IsbL-0275_LatLon0.15_PT099H.grib2 2026-04-29 16:30 1.1M
20260429T12Z_MSC_GDPS_WindSpeed_IsbL-0300_LatLon0.15_PT099H.grib2 2026-04-29 16:30 1.1M
20260429T12Z_MSC_GDPS_WindSpeed_IsbL-0350_LatLon0.15_PT099H.grib2 2026-04-29 16:30 1.1M
20260429T12Z_MSC_GDPS_WindSpeed_IsbL-0400_LatLon0.15_PT099H.grib2 2026-04-29 16:30 1.1M
20260429T12Z_MSC_GDPS_WindSpeed_IsbL-0450_LatLon0.15_PT099H.grib2 2026-04-29 16:30 1.1M
20260429T12Z_MSC_GDPS_WindSpeed_IsbL-0500_LatLon0.15_PT099H.grib2 2026-04-29 16:30 1.1M
20260429T12Z_MSC_GDPS_WindSpeed_IsbL-0550_LatLon0.15_PT099H.grib2 2026-04-29 16:30 1.1M
20260429T12Z_MSC_GDPS_WindSpeed_IsbL-0600_LatLon0.15_PT099H.grib2 2026-04-29 16:30 1.4M
20260429T12Z_MSC_GDPS_WindSpeed_IsbL-0650_LatLon0.15_PT099H.grib2 2026-04-29 16:30 1.5M
20260429T12Z_MSC_GDPS_WindSpeed_IsbL-0700_LatLon0.15_PT099H.grib2 2026-04-29 16:30 1.5M
20260429T12Z_MSC_GDPS_WindSpeed_IsbL-0750_LatLon0.15_PT099H.grib2 2026-04-29 16:30 1.6M
20260429T12Z_MSC_GDPS_WindSpeed_IsbL-0800_LatLon0.15_PT099H.grib2 2026-04-29 16:30 1.7M
20260429T12Z_MSC_GDPS_WindSpeed_IsbL-0850_LatLon0.15_PT099H.grib2 2026-04-29 16:30 1.7M
20260429T12Z_MSC_GDPS_WindSpeed_IsbL-0875_LatLon0.15_PT099H.grib2 2026-04-29 16:30 1.8M
20260429T12Z_MSC_GDPS_WindSpeed_IsbL-0900_LatLon0.15_PT099H.grib2 2026-04-29 16:30 1.8M
20260429T12Z_MSC_GDPS_WindSpeed_IsbL-0925_LatLon0.15_PT099H.grib2 2026-04-29 16:30 1.9M
20260429T12Z_MSC_GDPS_WindSpeed_IsbL-0950_LatLon0.15_PT099H.grib2 2026-04-29 16:30 1.9M
20260429T12Z_MSC_GDPS_WindSpeed_IsbL-0970_LatLon0.15_PT099H.grib2 2026-04-29 16:30 1.8M
20260429T12Z_MSC_GDPS_WindSpeed_IsbL-0985_LatLon0.15_PT099H.grib2 2026-04-29 16:30 1.9M
20260429T12Z_MSC_GDPS_WindSpeed_IsbL-1000_LatLon0.15_PT099H.grib2 2026-04-29 16:30 1.8M
20260429T12Z_MSC_GDPS_WindSpeed_IsbL-1015_LatLon0.15_PT099H.grib2 2026-04-29 16:30 1.8M
20260429T12Z_MSC_GDPS_WindU_AGL-10m_LatLon0.15_PT099H.grib2 2026-04-29 16:30 1.3M
20260429T12Z_MSC_GDPS_WindU_AGL-120m_LatLon0.15_PT099H.grib2 2026-04-29 16:30 1.0M
20260429T12Z_MSC_GDPS_WindU_AGL-40m_LatLon0.15_PT099H.grib2 2026-04-29 16:30 969K
20260429T12Z_MSC_GDPS_WindU_AGL-80m_LatLon0.15_PT099H.grib2 2026-04-29 16:30 1.0M
20260429T12Z_MSC_GDPS_WindU_IsbL-0001_LatLon0.15_PT099H.grib2 2026-04-29 16:30 498K
20260429T12Z_MSC_GDPS_WindU_IsbL-0005_LatLon0.15_PT099H.grib2 2026-04-29 16:30 690K
20260429T12Z_MSC_GDPS_WindU_IsbL-0010_LatLon0.15_PT099H.grib2 2026-04-29 16:30 701K
20260429T12Z_MSC_GDPS_WindU_IsbL-0020_LatLon0.15_PT099H.grib2 2026-04-29 16:30 732K
20260429T12Z_MSC_GDPS_WindU_IsbL-0030_LatLon0.15_PT099H.grib2 2026-04-29 16:30 739K
20260429T12Z_MSC_GDPS_WindU_IsbL-0050_LatLon0.15_PT099H.grib2 2026-04-29 16:30 770K
20260429T12Z_MSC_GDPS_WindU_IsbL-0100_LatLon0.15_PT099H.grib2 2026-04-29 16:30 926K
20260429T12Z_MSC_GDPS_WindU_IsbL-0150_LatLon0.15_PT099H.grib2 2026-04-29 16:30 1.0M
20260429T12Z_MSC_GDPS_WindU_IsbL-0175_LatLon0.15_PT099H.grib2 2026-04-29 16:30 1.0M
20260429T12Z_MSC_GDPS_WindU_IsbL-0200_LatLon0.15_PT099H.grib2 2026-04-29 16:30 846K
20260429T12Z_MSC_GDPS_WindU_IsbL-0225_LatLon0.15_PT099H.grib2 2026-04-29 16:30 860K
20260429T12Z_MSC_GDPS_WindU_IsbL-0250_LatLon0.15_PT099H.grib2 2026-04-29 16:30 863K
20260429T12Z_MSC_GDPS_WindU_IsbL-0275_LatLon0.15_PT099H.grib2 2026-04-29 16:30 893K
20260429T12Z_MSC_GDPS_WindU_IsbL-0300_LatLon0.15_PT099H.grib2 2026-04-29 16:30 883K
20260429T12Z_MSC_GDPS_WindU_IsbL-0350_LatLon0.15_PT099H.grib2 2026-04-29 16:30 897K
20260429T12Z_MSC_GDPS_WindU_IsbL-0400_LatLon0.15_PT099H.grib2 2026-04-29 16:30 899K
20260429T12Z_MSC_GDPS_WindU_IsbL-0450_LatLon0.15_PT099H.grib2 2026-04-29 16:30 1.1M
20260429T12Z_MSC_GDPS_WindU_IsbL-0500_LatLon0.15_PT099H.grib2 2026-04-29 16:30 1.1M
20260429T12Z_MSC_GDPS_WindU_IsbL-0550_LatLon0.15_PT099H.grib2 2026-04-29 16:30 1.1M
20260429T12Z_MSC_GDPS_WindU_IsbL-0600_LatLon0.15_PT099H.grib2 2026-04-29 16:30 1.2M
20260429T12Z_MSC_GDPS_WindU_IsbL-0650_LatLon0.15_PT099H.grib2 2026-04-29 16:30 1.2M
20260429T12Z_MSC_GDPS_WindU_IsbL-0700_LatLon0.15_PT099H.grib2 2026-04-29 16:30 1.2M
20260429T12Z_MSC_GDPS_WindU_IsbL-0750_LatLon0.15_PT099H.grib2 2026-04-29 16:30 1.3M
20260429T12Z_MSC_GDPS_WindU_IsbL-0800_LatLon0.15_PT099H.grib2 2026-04-29 16:30 1.4M
20260429T12Z_MSC_GDPS_WindU_IsbL-0850_LatLon0.15_PT099H.grib2 2026-04-29 16:30 1.4M
20260429T12Z_MSC_GDPS_WindU_IsbL-0875_LatLon0.15_PT099H.grib2 2026-04-29 16:30 1.5M
20260429T12Z_MSC_GDPS_WindU_IsbL-0900_LatLon0.15_PT099H.grib2 2026-04-29 16:30 1.5M
20260429T12Z_MSC_GDPS_WindU_IsbL-0925_LatLon0.15_PT099H.grib2 2026-04-29 16:30 1.5M
20260429T12Z_MSC_GDPS_WindU_IsbL-0950_LatLon0.15_PT099H.grib2 2026-04-29 16:30 1.4M
20260429T12Z_MSC_GDPS_WindU_IsbL-0970_LatLon0.15_PT099H.grib2 2026-04-29 16:30 1.4M
20260429T12Z_MSC_GDPS_WindU_IsbL-0985_LatLon0.15_PT099H.grib2 2026-04-29 16:30 1.4M
20260429T12Z_MSC_GDPS_WindU_IsbL-1000_LatLon0.15_PT099H.grib2 2026-04-29 16:30 1.4M
20260429T12Z_MSC_GDPS_WindU_IsbL-1015_LatLon0.15_PT099H.grib2 2026-04-29 16:30 1.4M
20260429T12Z_MSC_GDPS_WindV_AGL-10m_LatLon0.15_PT099H.grib2 2026-04-29 16:30 1.3M
20260429T12Z_MSC_GDPS_WindV_AGL-120m_LatLon0.15_PT099H.grib2 2026-04-29 16:30 969K
20260429T12Z_MSC_GDPS_WindV_AGL-40m_LatLon0.15_PT099H.grib2 2026-04-29 16:30 964K
20260429T12Z_MSC_GDPS_WindV_AGL-80m_LatLon0.15_PT099H.grib2 2026-04-29 16:30 970K
20260429T12Z_MSC_GDPS_WindV_IsbL-0001_LatLon0.15_PT099H.grib2 2026-04-29 16:30 778K
20260429T12Z_MSC_GDPS_WindV_IsbL-0005_LatLon0.15_PT099H.grib2 2026-04-29 16:30 857K
20260429T12Z_MSC_GDPS_WindV_IsbL-0010_LatLon0.15_PT099H.grib2 2026-04-29 16:30 809K
20260429T12Z_MSC_GDPS_WindV_IsbL-0020_LatLon0.15_PT099H.grib2 2026-04-29 16:30 935K
20260429T12Z_MSC_GDPS_WindV_IsbL-0030_LatLon0.15_PT099H.grib2 2026-04-29 16:30 937K
20260429T12Z_MSC_GDPS_WindV_IsbL-0050_LatLon0.15_PT099H.grib2 2026-04-29 16:30 1.0M
20260429T12Z_MSC_GDPS_WindV_IsbL-0100_LatLon0.15_PT099H.grib2 2026-04-29 16:30 1.1M
20260429T12Z_MSC_GDPS_WindV_IsbL-0150_LatLon0.15_PT099H.grib2 2026-04-29 16:30 1.0M
20260429T12Z_MSC_GDPS_WindV_IsbL-0175_LatLon0.15_PT099H.grib2 2026-04-29 16:30 1.0M
20260429T12Z_MSC_GDPS_WindV_IsbL-0200_LatLon0.15_PT099H.grib2 2026-04-29 16:30 845K
20260429T12Z_MSC_GDPS_WindV_IsbL-0225_LatLon0.15_PT099H.grib2 2026-04-29 16:30 855K
20260429T12Z_MSC_GDPS_WindV_IsbL-0250_LatLon0.15_PT099H.grib2 2026-04-29 16:30 855K
20260429T12Z_MSC_GDPS_WindV_IsbL-0275_LatLon0.15_PT099H.grib2 2026-04-29 16:30 881K
20260429T12Z_MSC_GDPS_WindV_IsbL-0300_LatLon0.15_PT099H.grib2 2026-04-29 16:30 927K
20260429T12Z_MSC_GDPS_WindV_IsbL-0350_LatLon0.15_PT099H.grib2 2026-04-29 16:30 882K
20260429T12Z_MSC_GDPS_WindV_IsbL-0400_LatLon0.15_PT099H.grib2 2026-04-29 16:30 884K
20260429T12Z_MSC_GDPS_WindV_IsbL-0450_LatLon0.15_PT099H.grib2 2026-04-29 16:30 885K
20260429T12Z_MSC_GDPS_WindV_IsbL-0500_LatLon0.15_PT099H.grib2 2026-04-29 16:30 1.1M
20260429T12Z_MSC_GDPS_WindV_IsbL-0550_LatLon0.15_PT099H.grib2 2026-04-29 16:30 1.1M
20260429T12Z_MSC_GDPS_WindV_IsbL-0600_LatLon0.15_PT099H.grib2 2026-04-29 16:30 1.1M
20260429T12Z_MSC_GDPS_WindV_IsbL-0650_LatLon0.15_PT099H.grib2 2026-04-29 16:30 1.2M
20260429T12Z_MSC_GDPS_WindV_IsbL-0700_LatLon0.15_PT099H.grib2 2026-04-29 16:30 1.2M
20260429T12Z_MSC_GDPS_WindV_IsbL-0750_LatLon0.15_PT099H.grib2 2026-04-29 16:30 1.3M
20260429T12Z_MSC_GDPS_WindV_IsbL-0800_LatLon0.15_PT099H.grib2 2026-04-29 16:30 1.3M
20260429T12Z_MSC_GDPS_WindV_IsbL-0850_LatLon0.15_PT099H.grib2 2026-04-29 16:30 1.4M
20260429T12Z_MSC_GDPS_WindV_IsbL-0875_LatLon0.15_PT099H.grib2 2026-04-29 16:30 1.4M
20260429T12Z_MSC_GDPS_WindV_IsbL-0900_LatLon0.15_PT099H.grib2 2026-04-29 16:30 1.5M
20260429T12Z_MSC_GDPS_WindV_IsbL-0925_LatLon0.15_PT099H.grib2 2026-04-29 16:30 1.4M
20260429T12Z_MSC_GDPS_WindV_IsbL-0950_LatLon0.15_PT099H.grib2 2026-04-29 16:30 1.4M
20260429T12Z_MSC_GDPS_WindV_IsbL-0970_LatLon0.15_PT099H.grib2 2026-04-29 16:30 1.4M
20260429T12Z_MSC_GDPS_WindV_IsbL-0985_LatLon0.15_PT099H.grib2 2026-04-29 16:30 1.4M
20260429T12Z_MSC_GDPS_WindV_IsbL-1000_LatLon0.15_PT099H.grib2 2026-04-29 16:30 1.4M
20260429T12Z_MSC_GDPS_WindV_IsbL-1015_LatLon0.15_PT099H.grib2 2026-04-29 16:30 1.3M